Location: Unspecified
(49.2170°N, 0.0000°E)
Time: 21:35:07
(UTC+00:00)

Transit 2A - Pass Details

Date: 26 June 2019
Orbit: 600 x 958 km, 66.7° (Epoch: 21 October)

Event Time Altitude Azimuth Distance (km) Brightness Sun altitude
Rises 21:35:47 0° 159° (SSE) 3,615 - -10.4°
Reaches altitude 10° 21:39:22 10° 139° (SE) 2,685 - -10.7°
Exits shadow 21:40:19 12° 131° (SE) 2,506 8.0 -10.8°
Maximum altitude 21:42:59 16° 103° (ESE) 2,271 8.0 -11.0°
Drops below altitude 10° 21:46:36 10° 68° (ENE) 2,666 8.7 -11.3°
Sets 21:50:06 0° 48° (NE) 3,577 9.6 -11.6°
